This is the latest recevied weather packets stored in our database for station/object SQ9PDE-13. If no packets are shown the sender has not sent any weather packets the latest 10 day(s).
| Time | Temp. | Humidity | Pressure | Rain* | Wind** | Luminosity | Snow |
|---|---|---|---|---|---|---|---|
| 1777875720 | 21.11° C | 47% | 1016 hPa | - | - | - | - |
| 1777875679 | 21.67° C | 46% | 1015.8 hPa | - | - | - | - |
| 1777875420 | 21.67° C | 46% | 1015.8 hPa | - | - | - | - |
| 1777875120 | 20.56° C | 48% | 1015.9 hPa | - | - | - | - |
| 1777874819 | 21.11° C | 48% | 1015.9 hPa | - | - | - | - |
| 1777874519 | 21.11° C | 48% | 1015.9 hPa | - | - | - | - |
| 1777874218 | 18.89° C | 51% | 1016.4 hPa | - | - | - | - |
| 1777873918 | 19.44° C | 51% | 1016.1 hPa | - | - | - | - |
| 1777873617 | 17.78° C | 53% | 1015.2 hPa | - | - | - | - |
| 1777873316 | 16.11° C | 50% | 1015 hPa | - | - | - | - |
| 1777873016 | 15.56° C | 48% | 1015.1 hPa | - | - | - | - |
| 1777872715 | 15° C | 50% | 1015.2 hPa | - | - | - | - |
| 1777872416 | 14.44° C | 50% | 1015.3 hPa | - | - | - | - |
| 1777872114 | 13.89° C | 51% | 1015.4 hPa | - | - | - | - |
| 1777871886 | 13.89° C | 52% | 1015.4 hPa | - | - | - | - |
| 1777871814 | 13.89° C | 52% | 1015.4 hPa | - | - | - | - |
| 1777871513 | 13.89° C | 52% | 1015.5 hPa | - | - | - | - |
| 1777871213 | 13.33° C | 54% | 1016 hPa | - | - | - | - |
| 1777870912 | 13.89° C | 58% | 1016.9 hPa | - | - | - | - |
| 1777870839 | 13.89° C | 63% | 1016.9 hPa | - | - | - | - |
| 1777870612 | 13.89° C | 63% | 1016.9 hPa | - | - | - | - |
| 1777870311 | 13.89° C | 64% | 1016.7 hPa | - | - | - | - |
| 1777870011 | 13.33° C | 65% | 1016.4 hPa | - | - | - | - |
| 1777869989 | 11.67° C | 65% | 1016.2 hPa | - | - | - | - |
| 1777869989 | 12.22° C | 65% | 1016.3 hPa | - | - | - | - |
* Rain since midnight (hover to see other rain measurements)
** Current wind speed in m/s (hover to see current wind gust speed)